Dewpoint
76 76 77 76 76 76 76 77 76 76 74 75 75 73 74 74 74 73 73 72 71 70 71 70 69 68 69 66 66 67 72 71 69 69 70 73 72 73 77 76 76 75 76 75 75 75 75 75 75 75 75 74 74 74 74 74 74 74 74 74 73 74 74 73 73 73 73 72 73 73 73 73 73 74 74 73 73 74 74 74 74 74 74 74 73
76 76 76 75 75 76 76 76 75 76 76 75 76 75 75 73 74 73 72 72 71 70 71 70 69 67 66 67 67 65 71 69 68 68 68 70 71 72 77 77 75 75 76 75 75 75 75 75 75 75 75 74 74 74 74 74 74 74 74 74 74 74 74 74 73 73 73 73 72 73 74 74 73 74 74 74 73 73 74 74 74 74 74 75 74
76 76 75 75 75 76 76 76 76 76 75 74 74 73 75 74 73 73 72 73 72 72 71 70 70 68 67 67 67 66 67 67 67 68 66 68 70 72 74 77 76 76 76 76 76 76 75 76 76 76 75 75 74 74 74 75 74 74 74 74 74 74 74 74 74 73 73 73 73 73 74 74 73 74 74 74 73 73 74 73 73 73 74 75 75
75 75 74 75 76 75 75 75 74 75 75 74 74 73 73 74 73 73 73 72 72 72 71 70 70 68 67 65 66 66 66 67 67 66 65 67 71 72 74 74 76 77 76 76 76 76 76 76 76 76 75 75 75 74 74 75 75 75 75 74 73 74 74 74 74 73 73 73 73 73 73 74 74 74 74 74 74 74 73 73 73 73 74 74 74
76 76 75 75 75 74 74 74 75 75 75 73 73 74 72 73 74 73 72 72 72 71 69 68 68 68 67 65 66 64 65 67 67 67 66 66 69 70 73 73 74 77 77 77 77 76 76 76 76 76 76 75 75 75 74 74 74 74 75 74 74 74 74 74 73 74 73 73 73 73 73 74 74 74 74 74 74 73 73 73 73 73 73 74 73
75 75 75 75 75 74 74 74 74 74 74 74 74 74 73 73 72 73 73 73 73 72 71 69 68 69 68 67 66 66 66 65 66 66 66 66 66 68 72 73 73 74 75 77 77 76 76 76 76 76 76 76 75 75 74 75 75 74 74 74 73 74 74 74 74 73 73 73 73 73 73 73 73 74 74 73 73 73 73 73 73 73 73 73 73
75 74 74 75 75 74 74 74 74 73 73 73 73 74 73 72 73 72 72 72 73 72 71 69 69 68 68 70 68 67 66 65 65 65 65 67 67 65 69 72 72 73 73 75 77 77 76 76 76 76 76 76 76 76 75 75 75 74 74 74 73 73 74 74 74 73 74 74 73 73 74 73 74 74 74 73 73 73 73 73 73 74 73 73 73
75 75 75 75 75 74 75 75 74 74 73 74 74 73 73 73 73 73 71 71 73 72 72 72 71 68 68 70 70 69 66 66 66 64 64 66 65 65 67 71 71 73 73 73 75 76 77 76 76 76 76 76 76 76 75 75 75 75 74 74 73 73 74 74 74 74 74 74 74 74 74 73 74 74 74 74 73 73 73 73 73 74 74 74 73
74 75 75 75 75 74 75 75 74 73 74 75 74 74 73 72 73 73 73 72 73 71 71 71 72 70 71 71 68 70 67 67 67 67 65 66 64 63 65 70 71 74 73 72 73 74 77 77 76 76 76 76 76 76 75 75 75 75 75 74 74 73 73 74 74 74 74 74 74 73 74 73 74 74 74 74 74 73 73 73 74 74 74 74 74
72 74 74 73 74 74 74 74 74 74 74 74 74 75 74 73 72 73 73 72 71 70 70 72 71 70 70 69 70 68 68 69 68 69 68 66 66 65 64 64 69 69 71 71 72 74 74 76 77 76 76 76 76 76 76 75 75 76 76 75 74 73 73 74 74 74 74 74 74 74 74 73 73 74 74 74 74 74 74 73 73 74 74 74 74
74 74 74 74 75 75 75 75 74 74 74 74 74 74 73 73 72 73 73 73 73 71 71 71 70 70 69 69 70 70 70 68 69 67 67 66 66 66 64 66 65 66 70 70 72 73 74 75 75 75 75 77 76 76 76 76 76 76 75 75 75 74 74 74 74 74 74 74 74 74 74 74 73 74 74 74 74 74 74 74 74 74 75 74 74
74 74 74 74 74 73 73 74 75 74 73 73 74 73 72 72 72 72 72 72 73 72 71 72 71 71 70 69 69 67 68 68 67 65 67 66 66 67 66 69 66 66 68 68 68 70 73 75 76 75 74 75 77 76 76 76 76 76 76 75 75 75 74 74 74 75 75 74 74 74 74 74 74 73 74 74 74 74 74 74 74 74 74 74 74
74 75 74 75 75 75 75 75 75 74 73 73 73 73 73 73 72 72 72 71 70 70 71 71 70 70 70 69 69 69 68 68 66 66 66 66 67 67 67 68 65 65 64 63 67 69 72 74 75 74 73 72 75 77 76 76 76 76 76 76 75 75 75 75 74 74 74 75 75 74 74 74 74 74 74 74 74 74 74 74 74 74 74 74 74
75 75 74 74 74 73 74 75 74 74 74 72 72 73 73 72 72 72 72 71 70 71 71 71 69 68 69 67 68 69 69 67 66 66 65 66 67 66 67 65 64 64 65 65 64 69 70 73 75 74 73 73 74 75 76 75 76 76 76 76 76 76 76 75 75 74 74 75 75 75 75 75 74 74 74 74 74 74 73 74 74 74 74 74 74
75 75 74 74 73 73 72 74 74 73 73 72 73 73 74 73 72 71 71 71 71 71 72 71 69 69 69 67 66 66 68 67 67 66 67 65 67 65 66 65 63 62 63 64 64 63 70 72 74 74 73 73 74 73 75 75 75 76 76 76 76 76 76 76 75 75 74 75 75 75 75 75 75 74 74 74 74 74 74 74 74 74 74 74 74
74 75 74 73 74 73 73 73 74 73 74 73 73 73 72 73 72 72 71 69 70 70 71 73 71 71 66 66 67 66 65 66 67 67 66 66 66 65 65 64 63 61 63 63 63 63 66 71 72 72 73 73 74 73 73 74 75 76 76 76 76 76 76 76 76 76 75 75 75 75 75 75 75 75 74 74 74 74 74 75 74 74 74 74 74
74 73 73 73 74 74 72 74 74 74 74 73 72 72 72 73 72 73 72 71 70 69 71 73 72 73 70 66 66 65 64 67 65 67 66 66 65 65 65 63 61 61 61 62 62 62 62 65 70 71 72 72 72 73 73 72 74 75 76 77 77 76 76 76 76 76 76 75 75 75 75 75 75 75 75 75 74 74 74 75 75 74 74 74 75
75 75 74 74 72 73 73 73 74 75 74 73 73 73 73 73 73 73 72 72 70 70 70 72 72 72 72 71 70 67 68 70 66 67 72 65 65 65 65 63 61 61 61 61 62 62 63 62 67 69 70 70 70 73 73 72 73 73 74 75 77 77 76 76 76 76 76 76 76 76 75 75 75 75 75 75 75 75 75 75 75 75 75 75 75
74 75 74 73 73 73 72 73 74 74 75 75 73 72 72 73 73 74 72 72 72 70 70 71 73 71 72 71 71 71 70 67 67 68 65 70 65 64 63 63 61 59 59 59 62 61 61 62 61 64 68 69 70 70 72 72 73 73 75 76 77 77 77 77 76 76 76 76 76 76 76 75 75 75 75 75 75 75 75 75 75 75 75 75 75
75 75 73 73 72 73 74 75 74 74 75 74 73 72 73 74 74 73 73 73 72 70 70 73 70 69 72 71 70 71 70 70 68 68 67 65 65 64 62 61 61 60 60 59 61 62 61 61 60 61 65 68 70 70 70 71 71 72 73 77 77 77 77 77 77 77 76 76 76 76 76 76 76 76 75 76 76 75 76 76 76 75 75 75 75
76 75 75 74 75 75 74 75 75 76 75 73 72 72 72 72 74 73 72 74 72 72 72 71 70 70 71 70 70 71 71 67 68 68 67 66 65 65 64 61 60 60 60 59 61 62 62 61 62 62 65 68 70 70 69 70 70 72 74 77 77 78 77 77 77 76 77 76 76 76 76 76 76 76 76 76 76 76 76 76 76 76 76 76 76
74 74 75 74 74 75 74 73 75 75 76 73 73 73 72 72 71 73 72 73 73 73 71 71 71 72 72 72 70 70 69 68 68 67 66 67 66 65 65 61 60 59 60 60 60 61 60 60 62 62 63 67 68 70 69 71 70 70 72 77 78 78 77 77 77 77 76 77 76 76 76 76 76 76 76 77 77 76 76 76 77 77 76 76 76
74 75 73 75 73 74 75 72 73 76 77 75 76 73 72 75 72 73 73 72 72 73 72 72 72 72 71 72 71 70 69 68 68 68 66 66 66 65 65 65 59 57 59 59 61 60 60 61 61 61 63 64 68 69 69 70 72 70 73 77 77 78 78 78 77 77 77 77 77 77 76 76 76 76 76 77 77 77 77 77 77 77 77 77 77
75 74 72 71 74 75 74 73 76 76 75 75 75 75 73 73 74 74 74 74 74 73 72 72 71 72 71 72 72 71 70 69 68 71 69 67 66 65 64 64 60 57 57 60 61 60 60 61 61 62 63 64 67 69 70 70 70 74 73 76 77 78 79 78 78 78 77 77 77 77 77 77 77 77 76 76 77 77 77 77 77 77 77 77 77
73 72 72 71 73 73 73 74 73 74 76 75 75 75 75 74 73 73 73 71 73 73 73 71 72 72 71 73 73 72 72 72 72 70 69 68 67 65 66 64 62 59 57 58 59 59 59 60 61 61 62 64 64 68 69 69 69 73 75 74 77 77 77 78 79 78 78 77 77 77 77 77 77 77 77 77 77 77 77 77 77 77 77 77 77
70 71 71 70 71 70 72 74 75 75 75 75 75 75 75 75 74 74 73 73 73 72 72 71 72 72 72 72 72 72 72 73 72 71 70 70 67 65 66 65 64 62 58 57 58 59 59 59 61 61 62 63 64 67 68 68 68 74 76 72 75 76 76 77 79 79 78 78 78 78 77 77 77 77 77 77 77 77 77 77 77 77 77 77 77
72 73 73 73 72 73 74 74 74 75 75 75 74 74 75 75 74 74 74 73 73 73 72 71 71 72 72 72 71 71 72 72 72 71 70 68 67 67 67 66 65 64 62 58 58 58 59 59 60 60 61 66 65 67 68 67 70 74 76 70 73 75 75 76 77 78 79 79 78 78 78 78 77 77 77 77 77 78 78 77 77 77 77 77 77
70 70 70 70 70 72 72 72 74 74 74 74 75 74 74 73 74 74 73 73 72 72 72 71 71 72 72 72 72 70 71 71 70 73 70 70 69 70 70 69 67 65 65 62 60 60 60 59 61 60 62 65 65 67 71 68 66 75 77 70 72 73 74 75 75 77 78 79 79 79 78 78 78 78 77 77 77 77 78 78 78 78 78 78 77
67 67 70 69 70 70 70 70 72 74 75 74 74 73 74 74 73 74 73 73 73 72 71 71 71 71 71 71 71 71 71 71 74 73 72 72 71 71 71 69 70 67 65 64 65 62 65 59 61 64 61 61 65 63 66 66 68 71 72 70 68 73 73 73 74 75 76 77 77 78 78 78 78 78 78 77 77 77 77 78 78 78 78 78 77
67 69 69 68 70 70 69 69 69 71 73 74 74 73 74 73 73 73 72 73 72 72 71 71 71 72 72 72 72 72 71 72 75 72 72 73 72 73 73 71 71 67 68 66 65 66 65 65 62 75 70 71 64 62 62 66 70 71 72 70 69 71 72 72 73 73 74 75 75 76 77 77 78 78 78 78 78 78 77 77 78 77 77 78 78
68 69 68 67 68 68 70 68 67 68 69 71 74 73 73 74 73 73 73 72 72 72 73 72 71 70 71 71 73 73 72 73 72 73 73 73 72 72 71 70 71 70 70 69 66 67 66 67 66 65 68 67 64 65 60 65 67 71 71 70 70 71 74 73 73 73 73 73 74 75 76 77 78 78 78 79 79 78 78 78 78 78 77 78 78
68 68 67 68 68 68 66 65 65 65 67 67 70 73 74 73 72 72 72 73 72 71 71 70 70 72 71 70 71 72 73 73 71 72 73 72 73 73 73 71 73 71 73 70 67 66 70 73 71 70 70 66 66 64 65 72 71 72 72 71 71 73 74 73 73 73 72 72 73 73 74 75 77 78 78 79 79 78 78 78 78 78 78 78 78
68 67 67 68 68 67 68 68 68 68 69 69 69 71 73 73 73 73 73 73 72 71 71 70 70 70 71 70 70 72 71 72 72 72 73 72 73 73 73 72 71 72 71 71 69 68 68 71 72 71 73 72 70 72 71 70 72 72 71 69 71 70 71 74 73 72 72 72 72 72 73 73 75 76 77 78 79 79 79 79 78 78 78 78 78
68 66 66 66 66 67 66 67 68 68 69 69 68 68 68 69 70 70 70 71 71 72 71 69 70 70 70 70 70 70 71 70 70 72 71 72 73 73 72 71 71 71 73 71 69 69 68 69 72 71 71 74 72 73 71 69 75 73 69 69 68 69 67 69 73 73 71 71 71 71 72 72 73 74 75 77 78 78 79 78 78 78 77 77 76
65 65 65 66 68 69 68 68 69 67 68 68 68 68 68 69 69 67 67 70 72 71 70 71 68 70 70 70 70 69 69 69 70 72 72 72 72 72 72 72 71 70 70 71 70 69 69 69 70 69 69 73 69 72 71 72 73 74 73 69 69 67 67 67 70 73 71 71 71 71 71 71 71 72 73 74 75 76 76 76 76 75 74 74 73
66 66 67 68 68 68 68 67 66 67 67 68 68 68 67 68 67 67 66 68 69 68 68 68 70 70 70 69 68 69 70 70 70 71 72 72 72 71 71 72 72 72 71 71 73 71 70 68 70 69 74 73 75 75 74 74 73 72 72 73 69 68 70 66 68 68 72 71 71 70 70 70 70 70 71 72 73 74 75 73 73 72 72 71 71
67 67 67 68 67 67 65 63 64 65 66 66 67 66 66 66 67 66 67 68 68 69 68 68 70 70 70 69 68 70 70 70 69 70 71 71 71 72 71 72 71 72 72 72 71 71 70 69 68 70 72 72 73 74 73 72 71 72 73 72 71 69 72 69 67 70 73 71 71 71 70 70 70 70 70 70 70 70 71 71 71 71 71 70 70
67 66 66 66 65 65 64 63 63 64 66 66 67 67 67 65 66 67 67 67 65 65 66 64 66 70 70 70 69 70 70 70 70 71 70 70 70 71 71 71 71 71 71 71 73 72 71 70 69 69 70 71 69 72 74 72 70 70 72 72 72 72 72 71 69 69 72 71 71 71 70 70 70 69 69 69 68 68 68 69 69 70 70 70 69
66 65 65 66 65 62 64 63 64 65 66 66 67 66 67 68 68 67 66 66 66 64 64 65 66 67 71 70 70 70 71 71 70 69 70 71 70 69 69 69 70 70 70 71 71 71 71 70 70 69 69 71 70 71 73 73 72 71 70 71 71 73 72 73 73 72 73 73 71 71 71 71 71 70 67 66 67 67 67 68 68 69 70 70 68
65 64 65 63 63 65 64 65 66 66 66 65 66 69 68 67 67 66 66 66 65 65 65 65 65 66 68 70 71 71 71 71 71 71 71 70 70 70 70 70 70 71 71 72 71 70 69 70 70 69 69 69 71 71 72 73 71 72 72 71 70 71 71 72 73 74 73 77 76 74 72 72 72 71 68 67 68 68 67 67 68 69 70 70 69
65 65 65 64 63 64 64 65 65 65 65 63 67 67 67 66 67 67 66 66 65 65 65 64 65 65 67 67 68 71 72 72 72 72 71 71 71 71 70 70 71 71 71 71 71 70 70 69 70 70 71 71 70 71 72 70 69 68 72 72 71 71 72 72 72 74 73 73 73 76 75 74 74 73 72 71 70 68 68 68 68 69 70 69 69
65 65 65 65 64 63 63 63 64 64 63 62 66 68 67 67 67 66 65 65 65 65 65 65 65 65 65 65 67 67 69 71 72 73 72 72 71 71 71 71 71 71 71 70 70 70 70 69 69 70 70 70 69 69 70 70 71 72 72 72 70 72 71 69 70 71 74 72 71 72 74 76 75 74 74 72 72 73 72 70 69 69 68 67 67
65 65 64 65 64 63 62 62 61 62 62 64 68 68 68 67 66 66 65 65 65 64 64 64 63 63 63 64 66 66 67 71 73 72 70 72 71 71 70 71 72 71 70 70 70 71 70 70 70 70 70 69 70 70 69 69 71 71 70 71 71 70 69 68 67 70 75 73 73 72 73 76 74 73 74 73 73 72 74 73 69 68 67 67 66
64 64 64 64 64 64 63 64 63 62 62 68 65 66 66 66 66 66 65 63 63 62 62 62 62 62 63 64 65 65 66 68 70 70 70 71 71 71 71 71 71 70 71 71 70 70 70 69 69 70 70 69 69 69 69 69 71 70 71 71 70 69 68 67 67 67 73 76 74 73 72 76 74 72 72 72 73 72 72 71 68 67 66 66 66
63 64 64 63 63 64 64 64 64 63 63 64 65 64 64 64 65 66 64 63 63 63 63 63 63 64 65 65 65 65 65 68 70 69 70 69 70 69 70 72 71 71 69 68 69 71 71 70 70 70 70 70 70 70 70 69 73 71 71 71 71 71 69 68 68 69 73 77 75 74 72 73 74 72 71 71 72 72 72 68 68 67 67 66 65
62 62 62 62 62 63 63 64 64 64 63 64 62 61 61 61 63 66 65 64 63 63 64 64 63 64 65 66 66 65 65 67 68 68 68 67 69 68 68 68 69 71 71 69 69 69 70 70 70 69 71 71 71 71 72 72 71 70 68 68 70 70 70 69 71 72 74 77 75 74 72 72 73 73 71 71 71 71 72 69 65 66 66 66 65
61 62 62 61 61 61 62 62 62 62 62 60 60 59 59 59 62 65 64 63 63 63 63 63 64 64 64 65 66 65 66 67 68 67 68 67 69 68 68 69 70 71 71 70 70 70 70 69 69 70 70 71 72 72 73 73 71 71 70 68 68 69 71 71 70 71 72 74 75 74 70 71 72 71 71 71 71 71 71 67 64 65 66 66 65
60 61 61 61 61 61 62 62 61 61 60 58 58 57 57 57 61 60 61 62 63 62 62 62 63 63 64 65 66 66 67 67 68 68 68 68 67 67 69 69 69 70 70 71 70 69 70 71 71 70 70 71 70 71 72 72 74 72 71 72 71 70 69 68 67 68 69 70 72 73 71 70 71 69 69 70 71 71 71 70 66 65 65 65 65
59 60 60 60 62 61 62 62 61 61 59 57 56 56 55 56 58 57 59 59 60 60 59 59 61 62 63 64 65 66 66 67 68 64 65 69 67 67 67 67 68 67 69 70 68 66 65 64 63 64 64 65 65 65 65 66 70 71 70 69 68 69 68 67 67 68 68 69 71 72 71 70 70 70 69 69 70 69 69 69 70 66 63 64 63
60 60 61 60 61 61 60 60 61 62 60 57 55 54 54 55 57 55 56 57 57 57 57 58 59 61 62 64 64 66 65 65 63 61 62 65 65 66 66 65 66 66 66 68 69 69 65 63 63 63 63 64 64 65 65 65 66 69 70 67 67 68 68 68 68 68 69 69 71 73 69 70 70 70 69 68 69 69 68 68 69 68 64 62 61
60 60 59 59 59 59 60 60 60 61 61 58 54 54 53 53 54 54 54 54 54 54 54 55 57 59 60 62 63 66 66 64 60 59 60 63 63 63 64 65 66 66 66 68 68 69 69 69 69 70 69 68 68 68 70 68 68 69 69 69 69 69 68 68 68 68 68 68 70 72 70 69 69 70 69 68 67 67 68 68 68 69 71 71 69